Total_Precipitation_Accumulation
1.14 1.15 1.26 1.43 1.52 1.57 1.71 1.69 1.62 1.60 1.63 1.57 1.52 1.55 1.52 1.45 1.52 1.71 1.83 2.03 2.16 2.21 2.19 2.24 2.24 2.33 2.36 2.25 2.34 2.46 2.68 2.85 2.53 2.05 2.11 2.25 2.20 1.99 1.81 1.64 1.51 1.47 1.43
1.11 1.18 1.24 1.34 1.42 1.47 1.52 1.60 1.67 1.64 1.69 1.66 1.61 1.58 1.45 1.42 1.51 1.64 1.78 1.95 2.10 2.21 2.31 2.39 2.19 2.26 2.39 2.33 2.33 2.36 2.46 2.73 2.64 2.51 2.46 2.51 2.42 2.17 1.94 1.68 1.39 1.27 1.32
1.19 1.19 1.16 1.23 1.22 1.27 1.35 1.44 1.57 1.62 1.66 1.70 1.71 1.64 1.57 1.59 1.68 1.74 1.81 1.95 2.08 2.15 2.24 2.23 2.18 2.31 2.23 2.26 2.33 2.31 2.30 2.37 2.50 2.47 2.36 2.45 2.37 2.15 1.97 1.70 1.47 1.44 1.31
1.05 1.06 1.09 1.12 1.17 1.27 1.36 1.41 1.47 1.44 1.51 1.54 1.54 1.62 1.64 1.69 1.72 1.73 1.73 1.78 1.86 1.93 1.91 1.82 1.75 1.82 1.89 2.04 2.05 2.06 2.14 2.23 2.32 2.27 2.25 2.34 2.36 2.39 2.22 1.91 1.73 1.57 1.41
1.11 1.08 1.12 1.19 1.18 1.22 1.25 1.27 1.30 1.36 1.38 1.54 1.59 1.67 1.72 1.69 1.60 1.65 1.66 1.58 1.76 1.73 1.59 1.53 1.54 1.63 1.65 1.73 1.66 1.75 1.92 2.00 2.08 2.17 2.25 2.42 2.44 2.56 2.41 2.12 1.98 1.84 1.57
1.08 1.18 1.27 1.26 1.16 1.19 1.21 1.20 1.25 1.36 1.45 1.55 1.61 1.71 1.75 1.60 1.64 1.68 1.69 1.67 1.72 1.68 1.63 1.56 1.44 1.43 1.41 1.45 1.49 1.53 1.67 1.81 1.98 2.15 2.22 2.31 2.38 2.35 2.30 2.18 2.06 1.89 1.62
1.15 1.17 1.31 1.38 1.29 1.33 1.36 1.35 1.36 1.40 1.53 1.60 1.73 1.79 1.77 1.79 1.70 1.57 1.59 1.57 1.63 1.67 1.68 1.67 1.41 1.24 1.34 1.32 1.44 1.42 1.39 1.45 1.55 1.72 1.83 1.97 2.16 2.25 2.34 2.26 2.24 2.11 1.85
1.18 1.24 1.46 1.61 1.51 1.52 1.51 1.53 1.56 1.61 1.66 1.79 1.82 1.73 1.69 1.71 1.63 1.39 1.33 1.25 1.37 1.48 1.56 1.62 1.61 1.50 1.46 1.47 1.52 1.52 1.45 1.43 1.51 1.51 1.56 1.76 2.09 2.37 2.41 2.36 2.38 2.28 2.00
1.30 1.42 1.64 1.84 1.90 1.85 1.77 1.85 1.90 1.90 1.91 1.97 2.00 1.95 1.82 1.78 1.58 1.28 1.17 1.14 1.29 1.37 1.43 1.43 1.42 1.33 1.33 1.25 1.28 1.35 1.37 1.33 1.32 1.33 1.36 1.48 1.74 2.10 2.29 2.32 2.41 2.32 2.11
1.48 1.51 1.63 1.83 1.91 1.88 1.86 2.01 2.15 2.15 2.11 2.13 2.02 1.89 1.78 1.75 1.67 1.35 1.18 1.15 1.29 1.38 1.47 1.46 1.42 1.35 1.30 1.16 1.12 1.19 1.19 1.19 1.25 1.26 1.24 1.23 1.33 1.63 1.94 1.95 2.02 2.15 1.95
1.47 1.49 1.58 1.81 2.11 2.04 2.05 2.11 2.23 2.27 2.29 2.31 2.20 2.08 1.93 1.88 1.83 1.50 1.32 1.25 1.34 1.40 1.35 1.36 1.34 1.30 1.11 1.01 0.99 1.05 1.09 1.08 1.19 1.25 1.26 1.29 1.34 1.43 1.57 1.65 1.73 1.81 1.78
1.55 1.55 1.63 1.87 1.96 2.00 2.12 2.17 2.30 2.39 2.39 2.34 2.34 2.19 2.13 2.05 1.79 1.52 1.33 1.30 1.37 1.46 1.46 1.41 1.37 1.23 0.99 0.88 0.78 0.76 0.80 0.80 0.86 1.00 1.07 1.10 1.15 1.21 1.31 1.47 1.65 1.72 1.71
1.48 1.47 1.56 1.69 1.76 1.89 1.97 1.93 1.99 2.11 2.12 2.15 2.17 2.12 2.14 2.22 2.07 1.64 1.34 1.26 1.31 1.40 1.54 1.60 1.40 1.22 1.07 0.93 0.87 0.78 0.71 0.68 0.78 0.87 0.93 0.94 0.98 1.07 1.24 1.46 1.66 1.86 1.80
1.42 1.38 1.47 1.67 1.77 1.84 1.89 1.88 1.94 2.01 2.06 2.12 2.13 2.06 2.07 2.21 2.19 1.86 1.54 1.35 1.25 1.21 1.25 1.27 1.19 1.12 1.01 0.90 0.81 0.72 0.64 0.68 0.75 0.78 0.85 0.93 1.03 1.21 1.30 1.32 1.42 1.63 1.81
1.49 1.44 1.51 1.61 1.72 1.85 1.90 1.93 1.95 1.96 1.92 1.91 1.92 1.87 1.87 1.97 1.96 1.75 1.54 1.39 1.27 1.22 1.21 1.25 1.23 1.22 1.11 1.01 0.94 0.88 0.87 0.88 0.85 0.85 0.92 1.01 1.06 1.14 1.24 1.31 1.38 1.43 1.49
1.58 1.53 1.49 1.48 1.56 1.63 1.69 1.65 1.58 1.53 1.51 1.46 1.46 1.38 1.36 1.50 1.49 1.25 1.12 1.14 1.14 1.10 1.10 1.16 1.23 1.26 1.21 1.14 1.09 1.03 1.03 1.01 0.96 0.97 1.01 1.06 1.11 1.14 1.20 1.34 1.47 1.48 1.39
1.65 1.52 1.41 1.34 1.34 1.36 1.46 1.55 1.58 1.47 1.37 1.27 1.21 1.10 1.02 1.22 1.30 1.15 1.02 0.97 0.92 0.91 0.95 1.02 1.07 1.15 1.19 1.09 1.00 0.94 0.94 0.95 1.01 1.04 1.04 1.07 1.14 1.19 1.25 1.34 1.46 1.54 1.46
1.61 1.51 1.35 1.27 1.25 1.23 1.29 1.38 1.43 1.46 1.42 1.24 1.08 0.98 0.89 1.00 1.11 1.07 0.96 0.86 0.84 0.83 0.86 0.94 1.01 1.06 1.12 1.09 1.00 1.00 1.02 1.06 1.05 1.05 1.07 1.09 1.14 1.20 1.25 1.31 1.37 1.43 1.43
1.58 1.48 1.34 1.29 1.28 1.18 1.10 1.13 1.18 1.22 1.30 1.25 1.09 1.02 0.95 0.99 1.06 1.01 0.89 0.78 0.81 0.81 0.82 0.89 0.96 1.03 1.05 1.03 1.02 1.04 1.04 1.07 1.02 1.03 1.08 1.13 1.11 1.17 1.18 1.23 1.31 1.40 1.42
1.33 1.28 1.23 1.23 1.21 1.16 1.11 1.12 1.18 1.25 1.30 1.27 1.15 1.04 0.95 0.96 1.01 1.00 0.89 0.83 0.81 0.78 0.77 0.84 0.93 0.98 1.02 1.04 1.11 1.14 1.10 1.12 1.13 1.08 1.11 1.17 1.11 1.12 1.12 1.13 1.24 1.29 1.29
1.14 1.08 1.03 1.02 1.05 1.04 1.05 1.12 1.22 1.29 1.30 1.20 1.03 0.90 0.83 0.77 0.86 0.87 0.90 0.93 0.90 0.89 0.90 0.89 0.93 0.99 1.01 1.08 1.14 1.17 1.17 1.16 1.16 1.10 1.09 1.16 1.15 1.16 1.20 1.16 1.18 1.28 1.29
1.18 1.03 0.92 0.90 0.94 0.96 1.03 1.13 1.20 1.17 1.10 1.03 0.93 0.84 0.80 0.74 0.78 0.82 0.87 0.88 0.86 0.86 0.82 0.83 0.85 0.91 0.94 0.99 1.04 1.09 1.10 1.09 1.11 1.13 1.13 1.16 1.18 1.16 1.19 1.17 1.16 1.25 1.34
1.07 0.87 0.72 0.67 0.71 0.80 0.94 1.10 1.14 1.05 0.94 0.89 0.86 0.83 0.83 0.84 0.82 0.83 0.84 0.82 0.80 0.77 0.74 0.77 0.81 0.86 0.92 0.92 0.90 0.95 1.00 1.00 0.99 1.05 1.14 1.16 1.19 1.21 1.22 1.24 1.22 1.25 1.33
0.94 0.77 0.63 0.57 0.58 0.66 0.82 1.00 1.01 0.92 0.88 0.90 0.89 0.89 0.87 0.86 0.83 0.83 0.85 0.86 0.84 0.81 0.78 0.81 0.81 0.77 0.79 0.84 0.82 0.78 0.79 0.78 0.78 0.87 0.99 1.10 1.14 1.23 1.22 1.23 1.26 1.24 1.33
0.80 0.71 0.60 0.57 0.62 0.73 0.90 0.99 0.91 0.81 0.78 0.80 0.80 0.86 0.90 0.90 0.88 0.86 0.86 0.91 0.92 0.93 0.87 0.79 0.76 0.73 0.68 0.68 0.70 0.67 0.66 0.58 0.58 0.67 0.79 0.92 0.99 1.09 1.14 1.15 1.23 1.27 1.29
0.77 0.73 0.68 0.66 0.73 0.86 0.94 0.94 0.87 0.82 0.86 0.82 0.78 0.82 0.88 0.93 0.94 0.95 0.92 0.88 0.85 0.82 0.75 0.71 0.69 0.69 0.67 0.63 0.59 0.55 0.50 0.46 0.48 0.55 0.64 0.77 0.88 0.96 1.03 1.08 1.13 1.22 1.23